Flag for Iceland Weather past 2 weeks in Reykjavik, Iceland

Now
41 °F

Sprinkles. Partly sunny.


Feels Like: 33 °F
Forecast: 42 / 49 °F
Wind: 14 mph from Southeast

Location: Reykjavik Airport

Current Time: May 30, 2015 at 5:17:15 AM

Latest Report: May 30, 2015 at 5:00 AM


Visibility: N/A

Pressure: 29.65 "Hg

Humidity: 76%

Dew point: 34 °F

Location of ReykjavikLocation

Historic Weather in Reykjavik — Graph

°F

Reykjavik temperature yesterday

Maximum temperature yesterday: 50 °F (at 4:00 PM)
Minimum temperature yesterday: 37 °F (at 1:00 AM)
Average temperature yesterday: 44 °F

Past Weeks' High & Low Weather Summary

 TemperatureHumidityPressure
High50 °F (May 29, 4:00 PM)93% (May 21, 3:00 AM)30.04 "Hg (May 21, 3:00 AM)
Low34 °F (May 21, 3:00 AM)40% (May 29, 6:00 PM)28.74 "Hg (May 16, 12:00 AM)
Average43 °F71%29.55 "Hg
* Reported May 15 4:00 AM — May 30 4:00 AM, Reykjavik, Weather by CustomWeather, © 2015

Note: Actual official high and low records may vary slightly from our data, if they occured in-between our weather recording intervals... More about our weather records

Advertising

Reykjavik weather history for previous 24 hours

 ConditionsComfort  
Time TempWeatherWind HumidityBarometerVisibility
4:00 AM
Sat, May 30
43 °FPassing clouds.14 mph71%29.65 "HgN/A
3:00 AM39 °FPassing clouds.6 mph75%29.68 "HgN/A
2:00 AM39 °FClear.7 mph70%29.68 "Hg10 mi
1:00 AM41 °FClear.6 mph66%29.68 "Hg10 mi
12:00 AM45 °FClear.6 mph46%29.68 "Hg10 mi
11:00 PM
Fri, May 29
46 °FScattered clouds.6 mph53%29.68 "HgN/A
10:00 PM48 °FSunny.No wind62%29.68 "Hg10 mi
9:00 PM50 °FPartly sunny.No wind43%29.71 "HgN/A
8:00 PM48 °FPartly sunny.6 mph50%29.71 "HgN/A
7:00 PM48 °FPartly sunny.9 mph58%29.71 "HgN/A
6:00 PM50 °FPartly sunny.10 mph40%29.71 "HgN/A
5:00 PM50 °FScattered clouds.10 mph43%29.71 "HgN/A
4:00 PM50 °FPassing clouds.13 mph43%29.74 "HgN/A
3:00 PM48 °FPassing clouds.14 mph46%29.74 "HgN/A
2:00 PM48 °FPassing clouds.13 mph50%29.77 "HgN/A
1:00 PM46 °FPassing clouds.17 mph57%29.77 "HgN/A
12:00 PM46 °FPassing clouds.14 mph50%29.77 "HgN/A
11:00 AM46 °FPassing clouds.13 mph53%29.77 "HgN/A
10:00 AM43 °FPassing clouds.13 mph61%29.80 "HgN/A
9:00 AM43 °FPassing clouds.8 mph61%29.80 "HgN/A
8:00 AM41 °FPassing clouds.7 mph66%29.80 "HgN/A
7:00 AM41 °FPassing clouds.15 mph66%29.80 "HgN/A
6:00 AM39 °FPassing clouds.14 mph70%29.77 "HgN/A
5:00 AM37 °FPassing clouds.9 mph70%29.80 "HgN/A
Weather by CustomWeather, © 2015

See weather overviewHow to use our weather pages